• In Uzbekistan
  • List of Countries
  • For 7 days
  • Water Temperature
  • Satellite Maps
  • Weather Map
  • Weather Widgets
  • user-avatar
    Login

    Hourly Weather Nicolas Ruiz

    Today, 21 April, Saturday

    Time Temperature Precipitation Wind Pressure Humidity
    00:00 +22°C° 0 mm 1 mps 670 mmHg 72%
    01:00 +21°C° 0 mm 1 mps 670 mmHg 73%
    02:00 +21°C° 0 mm 1 mps 669 mmHg 74%
    03:00 +21°C° 0 mm 1 mps 669 mmHg 75%
    04:00 +20°C° 0 mm 1 mps 669 mmHg 76%
    05:00 +20°C° 0 mm 1 mps 669 mmHg 77%
    06:00 +20°C° 0 mm 1 mps 669 mmHg 78%
    07:00 +22°C° 0 mm 1 mps 670 mmHg 67%
    08:00 +25°C° 0 mm 1 mps 670 mmHg 56%
    09:00 +28°C° 0 mm 1 mps 671 mmHg 45%
    10:00 +30°C° 0 mm 1 mps 671 mmHg 40%
    11:00 +32°C° 0 mm 1 mps 671 mmHg 35%
    12:00 +34°C° 0 mm 1 mps 672 mmHg 30%
    13:00 +34°C° 0 mm 1 mps 671 mmHg 30%
    14:00 +34°C° 0 mm 1 mps 670 mmHg 31%
    15:00 +33°C° 0 mm 1 mps 669 mmHg 32%
    16:00 +32°C° 0 mm 1 mps 669 mmHg 36%
    17:00 +31°C° 0 mm 1 mps 669 mmHg 40%
    18:00 +29°C° 0 mm 1 mps 668 mmHg 45%
    19:00 +28°C° 0 mm 1 mps 669 mmHg 51%
    20:00 +26°C° 0 mm 1 mps 669 mmHg 57%
    21:00 +25°C° 0 mm 1 mps 669 mmHg 63%
    22:00 +24°C° 0 mm 1 mps 669 mmHg 65%
    23:00 +24°C° 0 mm 1 mps 669 mmHg 67%

    Tomorrow, 22 April, Sunday

    Time Temperature Precipitation Wind Pressure Humidity
    00:00 +23°C° 0 mm 1 mps 669 mmHg 69%
    01:00 +21°C° 0 mm 0 mps 669 mmHg 71%
    02:00 +21°C° 0 mm 0 mps 668 mmHg 73%
    03:00 +20°C° 0 mm 0 mps 668 mmHg 74%
    04:00 +20°C° 0 mm 0 mps 668 mmHg 75%
    05:00 +20°C° 0 mm 0 mps 668 mmHg 76%
    06:00 +19°C° 0 mm 0 mps 668 mmHg 77%
    07:00 +22°C° 0 mm 0 mps 669 mmHg 67%
    08:00 +25°C° 0 mm 0 mps 670 mmHg 56%
    09:00 +30°C° 0 mm 1 mps 671 mmHg 45%
    10:00 +32°C° 0 mm 1 mps 671 mmHg 41%
    11:00 +33°C° 0 mm 1 mps 671 mmHg 37%
    12:00 +35°C° 0 mm 1 mps 671 mmHg 32%
    13:00 +34°C° 0 mm 1 mps 670 mmHg 34%
    14:00 +34°C° 0 mm 2 mps 670 mmHg 35%
    15:00 +32°C° 0 mm 2 mps 669 mmHg 37%
    16:00 +31°C° 0.1 mm 2 mps 668 mmHg 42%
    17:00 +30°C° 0.1 mm 1 mps 668 mmHg 47%
    18:00 +29°C° 0.1 mm 1 mps 668 mmHg 53%
    19:00 +27°C° 0.1 mm 1 mps 669 mmHg 57%
    20:00 +26°C° 0.1 mm 2 mps 669 mmHg 62%
    21:00 +25°C° 0.1 mm 2 mps 670 mmHg 66%
    22:00 +25°C° 0 mm 1 mps 670 mmHg 66%
    23:00 +24°C° 0 mm 1 mps 670 mmHg 67%

    Day after tomorrow, 23 April, Monday

    Time Temperature Precipitation Wind Pressure Humidity
    00:00 +24°C° 0 mm 1 mps 670 mmHg 67%
    01:00 +23°C° 0 mm 1 mps 669 mmHg 68%
    02:00 +23°C° 0 mm 1 mps 669 mmHg 69%
    03:00 +22°C° 0 mm 1 mps 668 mmHg 69%
    04:00 +22°C° 0 mm 1 mps 669 mmHg 70%
    05:00 +22°C° 0 mm 1 mps 669 mmHg 70%
    06:00 +21°C° 0 mm 1 mps 669 mmHg 71%
    07:00 +24°C° 0 mm 1 mps 670 mmHg 63%
    08:00 +27°C° 0 mm 1 mps 671 mmHg 54%
    09:00 +30°C° 0 mm 1 mps 672 mmHg 46%
    10:00 +32°C° 0 mm 1 mps 672 mmHg 40%
    11:00 +34°C° 0 mm 1 mps 672 mmHg 35%
    12:00 +36°C° 0 mm 1 mps 672 mmHg 29%
    13:00 +36°C° 0 mm 2 mps 671 mmHg 31%
    14:00 +36°C° 0 mm 2 mps 670 mmHg 32%
    15:00 +35°C° 0 mm 2 mps 669 mmHg 33%
    16:00 +32°C° 0.1 mm 2 mps 669 mmHg 39%
    17:00 +31°C° 0.1 mm 2 mps 669 mmHg 46%
    18:00 +29°C° 0.1 mm 2 mps 669 mmHg 52%
    19:00 +28°C° 0.1 mm 2 mps 669 mmHg 57%
    20:00 +26°C° 0.1 mm 2 mps 670 mmHg 63%
    21:00 +25°C° 0.1 mm 1 mps 670 mmHg 68%
    22:00 +25°C° 0.4 mm 1 mps 670 mmHg 68%
    23:00 +24°C° 0.4 mm 1 mps 670 mmHg 69%

    24 April, Tuesday

    Time Temperature Precipitation Wind Pressure Humidity
    00:00 +24°C° 0.4 mm 1 mps 670 mmHg 69%
    01:00 +23°C° 0 mm 1 mps 670 mmHg 70%
    02:00 +23°C° 0 mm 1 mps 669 mmHg 71%
    03:00 +23°C° 0 mm 1 mps 669 mmHg 72%
    04:00 +22°C° 0 mm 1 mps 669 mmHg 73%
    05:00 +22°C° 0 mm 1 mps 669 mmHg 74%
    06:00 +22°C° 0 mm 1 mps 669 mmHg 75%
    07:00 +24°C° 0 mm 1 mps 670 mmHg 66%
    08:00 +27°C° 0 mm 1 mps 671 mmHg 56%
    09:00 +30°C° 0 mm 1 mps 672 mmHg 47%
    10:00 +32°C° 0 mm 1 mps 672 mmHg 42%
    11:00 +33°C° 0 mm 1 mps 672 mmHg 37%
    12:00 +35°C° 0 mm 1 mps 672 mmHg 32%
    13:00 +35°C° 0.1 mm 2 mps 671 mmHg 34%
    14:00 +34°C° 0.1 mm 2 mps 671 mmHg 37%
    15:00 +32°C° 0.1 mm 2 mps 670 mmHg 39%
    16:00 +31°C° 0.3 mm 2 mps 670 mmHg 45%
    17:00 +29°C° 0.3 mm 2 mps 670 mmHg 50%
    18:00 +28°C° 0.3 mm 2 mps 670 mmHg 56%
    19:00 +27°C° 0.3 mm 2 mps 670 mmHg 60%
    20:00 +26°C° 0.3 mm 2 mps 670 mmHg 65%
    21:00 +25°C° 0.3 mm 1 mps 671 mmHg 69%
    22:00 +24°C° 0.1 mm 1 mps 671 mmHg 69%
    23:00 +24°C° 0.1 mm 1 mps 670 mmHg 69%

    25 April, Wednesday

    Time Temperature Precipitation Wind Pressure Humidity
    00:00 +23°C° 0.1 mm 1 mps 670 mmHg 69%
    01:00 +23°C° 0 mm 1 mps 670 mmHg 70%
    02:00 +23°C° 0 mm 1 mps 669 mmHg 71%
    03:00 +22°C° 0 mm 1 mps 669 mmHg 72%
    04:00 +22°C° 0 mm 1 mps 669 mmHg 72%
    05:00 +22°C° 0 mm 1 mps 669 mmHg 73%
    06:00 +21°C° 0 mm 1 mps 669 mmHg 74%
    07:00 +24°C° 0 mm 1 mps 670 mmHg 66%
    08:00 +26°C° 0 mm 1 mps 671 mmHg 58%
    09:00 +29°C° 0 mm 1 mps 672 mmHg 50%
    10:00 +30°C° 0 mm 1 mps 672 mmHg 45%
    11:00 +32°C° 0 mm 1 mps 672 mmHg 41%
    12:00 +33°C° 0 mm 1 mps 672 mmHg 37%
    13:00 +33°C° 0.2 mm 1 mps 671 mmHg 38%
    14:00 +32°C° 0.2 mm 2 mps 670 mmHg 39%
    15:00 +32°C° 0.2 mm 2 mps 669 mmHg 41%
    16:00 +30°C° 0.5 mm 2 mps 669 mmHg 47%
    17:00 +29°C° 0.5 mm 2 mps 669 mmHg 53%
    18:00 +27°C° 0.5 mm 2 mps 669 mmHg 59%
    19:00 +27°C° 0.9 mm 1 mps 669 mmHg 63%
    20:00 +26°C° 0.9 mm 1 mps 670 mmHg 67%
    21:00 +25°C° 0.9 mm 1 mps 670 mmHg 71%
    22:00 +24°C° 0.3 mm 1 mps 670 mmHg 72%
    23:00 +24°C° 0.3 mm 1 mps 670 mmHg 73%

    26 April, Thursday

    Time Temperature Precipitation Wind Pressure Humidity
    00:00 +24°C° 0.3 mm 1 mps 670 mmHg 73%
    01:00 +23°C° 0 mm 1 mps 669 mmHg 74%
    02:00 +23°C° 0 mm 1 mps 669 mmHg 75%
    03:00 +22°C° 0 mm 1 mps 668 mmHg 76%
    04:00 +22°C° 0 mm 1 mps 669 mmHg 77%
    05:00 +22°C° 0 mm 1 mps 669 mmHg 78%
    06:00 +22°C° 0 mm 1 mps 669 mmHg 79%
    07:00 +24°C° 0 mm 1 mps 670 mmHg 71%
    08:00 +26°C° 0 mm 1 mps 671 mmHg 63%
    09:00 +28°C° 0 mm 1 mps 671 mmHg 55%
    10:00 +30°C° 0.1 mm 1 mps 671 mmHg 50%
    11:00 +31°C° 0.1 mm 1 mps 671 mmHg 45%
    12:00 +33°C° 0.1 mm 1 mps 671 mmHg 40%
    13:00 +32°C° 0.5 mm 1 mps 671 mmHg 42%
    14:00 +32°C° 0.5 mm 2 mps 670 mmHg 45%
    15:00 +31°C° 0.5 mm 2 mps 669 mmHg 47%
    16:00 +29°C° 1.1 mm 2 mps 669 mmHg 53%
    17:00 +28°C° 1.1 mm 2 mps 669 mmHg 60%
    18:00 +26°C° 1.1 mm 2 mps 669 mmHg 66%
    19:00 +25°C° 1.1 mm 2 mps 669 mmHg 69%
    20:00 +24°C° 1.1 mm 1 mps 670 mmHg 71%
    21:00 +24°C° 1.1 mm 1 mps 670 mmHg 74%
    22:00 +23°C° 0.1 mm 1 mps 670 mmHg 75%
    23:00 +23°C° 0.1 mm 1 mps 669 mmHg 76%
    Show more